Weather in Bangalore

India     12°58′44″N   77°35′28″E
temp.,
°C
wind,
m/s
gust,
m/s
humid.,
%
clouds,
%
prec.,
mm/h
press.,
hPa
HPBL,
m
13 april, tue
tue1323:30+25se596273 0.2 1014500
02:30+24ese3669100 0.1 1012334
05:30+22se35755 0.1 1013195
08:30+26se3357100 0.0 1014571
11:30+31ese45306 0.0 10132176
14:30+34se4523100 0.0 10083238
17:30+33se552498 0.0 10072775
20:30+27se7104514 0.0 1011546
14 april, wed
wed1423:30+25se47645 0.6 1013403
02:30+24s2465100 0.3 1011232
05:30+23ssw226887 0.3 1011137
08:30+26sw22555 0.0 1014615
11:30+32se12354 0.0 10122068
14:30+34e222793 0.0 10072743
17:30+30ne343677 0.2 10071654
20:30+25se5662100 0.5 1013452
15 april, thu
thu1523:30+23w1174100 3.8 1014339
02:30+23nw3471100 0.7 1011376
05:30+23nnw3468100 0.8 1012358
08:30+24e1258100 0.3 1014404
11:30+29ese33425 0.3 10131349
14:30+31e423579 0.3 10092376
17:30+27ssw445219 1.8 1009571
20:30+24s456786 0.4 1012370
16 april, fri
fri1623:30
02:30+22sw23730 0.0 1010127
05:30+22sw23750 0.0 1011111
08:30+25wsw22623 0.0 1013474
11:30+31n243922 0.0 10122207
14:30+32ne2331100 0.1 10082610
17:30+30ssw233686 0.1 1008802
20:30+27e244856 0.0 1011281
17 april, sat
sat1723:30+27ssw36463 0.1 1011297
02:30+24wsw246326 0.0 1010214
05:30+23wsw36720 0.0 1012260
08:30+26w34580 0.0 1014542
11:30+31wsw22370 0.0 10121892
14:30+34sse232474 0.0 10083362
17:30+30w5634100 0.1 1009395
20:30+30sse563799 0.1 1012318